Regional Weather Roundup
Issued by NWS Kansas City/Pleasant Hill, MO

Home | Current Version | Previous Version | Text Only | Print | Product List | Glossary On
Versions: 1 2 3 4 5 6 7 8 9 10 11 12 13 14 15 16 17 18 19 20 21 22 23 24 25 26 27 28 29 30 31 32 33 34 35 36 37 38 39 40 41 42 43 44 45 46 47 48 49 50
091
ASUS43 KEAX 281810
RWREAX

WEATHER ROUNDUP FOR EASTERN KANSAS AND NORTHWEST MISSOURI
NATIONAL WEATHER SERVICE KANSAS CITY/PLEASANT HILL MO
100 PM CDT FRI JUL 28 2017

KSZ040-057-103>105-MOZ028-029-037-043-281900-
...KANSAS CITY METROPOLITAN AREA...

CITY           SKY/WX    TMP DP  RH WIND       PRES   REMARKS
K.C. INTL      PTSUNNY   82  64  54 E7        30.02F
6HR MIN TEMP:  71; 6HR MAX TEMP:  83;

K.C. DOWNTOWN  SUNNY     83  64  52 E10G17    29.99F
LEES SUMMIT    SUNNY     82  64  54 NE15      30.01F
6HR MIN TEMP:  73; 6HR MAX TEMP:  82;

OLATHE - IXD   PTSUNNY   83  70  64 E9        30.01S
6HR MIN TEMP:  72; 6HR MAX TEMP:  84;

OLATHE - OJC   MOSUNNY   81  70  69 NE15      30.00F
6HR MIN TEMP:  71; 6HR MAX TEMP:  82;

LAWRENCE       MOSUNNY   84  72  67 NE10      30.00S

$$

MOZ001>008-011>017-020>025-030>033-038>040-044>046-053-054-281900-
...NORTHERN AND CENTRAL MISSOURI...

CITY           SKY/WX    TMP DP  RH WIND       PRES   REMARKS
ST. JOSEPH     SUNNY     84  66  54 NE9G17    30.01F
6HR MIN TEMP:  69; 6HR MAX TEMP:  84;

MOSBY          CLEAR     81  61  50 E7        30.01F
WARRENSBURG    SUNNY     81  61  50 NE7       30.00S
WHITEMAN AFB   MOSUNNY   82  63  51 NE12      29.98F
6HR MIN TEMP:  71; 6HR MAX TEMP:  82;

CLINTON        MOSUNNY   82  72  69 NE13      29.98F
SEDALIA        SUNNY     84  63  49 N14G21    30.00F
6HR MIN TEMP:  72; 6HR MAX TEMP:  84;

WARSAW         NOT AVBL
CHILLICOTHE      N/A     83  65  54 NE9       30.02F
6HR MIN TEMP:  68; 6HR MAX TEMP:  84;

KIRKSVILLE     MOSUNNY   83  54  36 E9        30.03S

$$

MOZ041-047>049-056>058-063>065-088>090-097-281900-
...EASTERN AND SOUTHERN MISSOURI...

CITY           SKY/WX    TMP DP  RH WIND       PRES   REMARKS
ST. LOUIS INTL MOSUNNY   85  68  56 N15       29.93F
6HR MIN TEMP:  74; 6HR MAX TEMP:  86;

SPIRIT OF STL  MOSUNNY   85  66  53 N12       29.92F
COLUMBIA       SUNNY     81  62  52 NE14      29.98F
JEFFERSON CITY SUNNY     84  61  45 NE9       29.96S
ROLLA          SUNNY     83  61  47 N14       29.97F
OSAGE BEACH    SUNNY     83  66  56 NE13      29.97S
SPRINGFIELD    MOSUNNY   87  71  58 NE13      29.95S HX  93
BRANSON        CLOUDY    82  73  74 NE6       29.96S
JOPLIN         MOSUNNY   89  73  59 N10       29.95F HX  97
WEST PLAINS    PTSUNNY   88  70  55 VRB7      29.94S HX  93

$$

IAZ060-094-KSZ022-034>040-054-083-096-NEZ052-066-093-281900-
...KANSAS...SOUTHEAST NEBRASKA AND IOWA...

CITY           SKY/WX    TMP DP  RH WIND       PRES   REMARKS
TOPEKA         PTSUNNY   84  73  69 NE6       29.99F HX  90
6HR MIN TEMP:  70; 6HR MAX TEMP:  85;

MANHATTAN      MOSUNNY   85  71  63 SE6       30.00F HX  90
EMPORIA        PTSUNNY   84  69  60 VRB7      30.00S
CHANUTE        MOSUNNY   87  70  56 E9        29.97S HX  92
WICHITA        MOSUNNY   88  69  53 NE9       29.99F HX  92
OMAHA          CLOUDY    82  62  50 E6        30.06F
LINCOLN        CLOUDY    79  61  53 NE9       30.07S
FALLS CITY     PTSUNNY   84  66  54 E12       30.02F
LAMONI         MOSUNNY   81  62  52 VRB6      30.04F
DES MOINES     PTSUNNY   83  61  47 VRB5      30.04F

$$





USA.gov is the U.S. government's official web portal to all federal, state and local government web resources and services.